Weather History for Howell, MI

Change the Weather History Date:

Saturday, February 1, 2014

  Actual Average Record
Temperature  
Mean Temperature 26 °F -  
Max Temperature 30 °F 32 °F 51 °F (2012)
Min Temperature 21 °F 18 °F 8 °F (2005)
Degree Days  
Heating Degree Days 40    
Moisture  
Dew Point 24 °F    
Average Humidity 94    
Maximum Humidity 98    
Minimum Humidity 76    
Precipitation  
Precipitation 0.00 in - - ()
Sea Level Pressure  
Sea Level Pressure 29.94 in    
Wind  
Wind Speed 2 mph (NE)    
Max Wind Speed 10 mph    
Max Gust Speed -    
Visibility 3 miles    
Events Snow    
Averages and records for this station are not official NWS values.
T = Trace of Precipitation, MM = Missing Value Source: NWS Daily Summary

Daily Weather History Graph

Daily Weather History Graph

Search for Another Location

Airport:

Trip Planner

Search our weather history database for the weather conditions in past years. The results will help you decide how hot, cold, wet, or windy it might be!

Date:

Astronomy

Feb. 01, 2014 Rise Set
Actual Time 7:50 AM EST 5:49 PM EST
Civil Twilight 7:20 AM EST 6:19 PM EST
Nautical Twilight 6:46 AM EST 6:53 PM EST
Astronomical Twilight 6:13 AM EST 7:26 PM EST
Moon 8:35 AM EST (2/1) 8:28 PM EST (2/1)
Length of Visible Light 10h 59m
Length of Day
9h 59m
Waxing Crescent, 5% of the Moon is Illuminated
Feb 1
Waxing Crescent
Feb 6
First Quarter
Feb 14
Full
Feb 22
Last Quarter
Mar 1
New

Hourly Weather History & Observations

Time (EST) Temp. Windchill Dew Point Humidity Pressure Visibility Wind Dir Wind Speed Gust Speed Precip Events Conditions
12:14 AM 24.6 °F - 18.0 °F 76% 30.10 in 7.0 mi Calm Calm - N/A   Overcast
12:35 AM 24.6 °F - 18.1 °F 76% 30.10 in 7.0 mi Calm Calm - N/A Snow Light Snow
12:55 AM 24.3 °F - 18.3 °F 78% 30.10 in 5.0 mi Calm Calm - N/A Snow Light Snow
1:14 AM 23.7 °F - 19.0 °F 82% 30.10 in 4.0 mi Calm Calm - N/A Snow Light Snow
1:35 AM 23.4 °F - 19.8 °F 86% 30.10 in 4.0 mi Calm Calm - N/A Snow Light Snow
1:55 AM 23.0 °F - 20.1 °F 89% 30.09 in 3.0 mi Calm Calm - N/A Snow Light Snow
2:15 AM 22.8 °F - 20.5 °F 91% 30.08 in 2.0 mi Calm Calm - N/A Snow Light Snow
2:35 AM 22.5 °F - 20.8 °F 93% 30.09 in 3.0 mi Calm Calm - N/A Snow Light Snow
2:55 AM 22.5 °F - 21.0 °F 94% 30.09 in 5.0 mi Calm Calm - N/A Snow Light Snow
3:15 AM 22.3 °F - 21.2 °F 96% 30.09 in 3.0 mi Calm Calm - N/A Snow Light Snow
3:35 AM 22.1 °F - 21.0 °F 96% 30.08 in 3.0 mi Calm Calm - N/A Snow Light Snow
3:55 AM 22.1 °F 17.4 °F 21.2 °F 96% 30.07 in 5.0 mi East 3.5 mph - N/A Snow Light Snow
4:15 AM 22.5 °F - 21.6 °F 96% 30.07 in 7.0 mi Calm Calm - N/A Snow Light Snow
4:35 AM 22.6 °F - 21.6 °F 96% 30.07 in 3.0 mi Calm Calm - N/A Snow Light Snow
4:55 AM 22.6 °F - 21.6 °F 96% 30.05 in 5.0 mi Calm Calm - N/A Snow Light Snow
5:15 AM 22.6 °F 18.0 °F 21.6 °F 96% 30.05 in 7.0 mi East 3.5 mph - N/A   Overcast
5:35 AM 23.0 °F 18.4 °F 21.9 °F 96% 30.06 in 5.0 mi ESE 3.5 mph - N/A Snow Light Snow
5:55 AM 23.0 °F 18.4 °F 21.9 °F 96% 30.05 in 5.0 mi East 3.5 mph - N/A Snow Light Snow
6:15 AM 23.4 °F 18.9 °F 22.1 °F 95% 30.04 in 7.0 mi East 3.5 mph - N/A Snow Light Snow
6:35 AM 23.5 °F 17.6 °F 22.1 °F 94% 30.02 in 7.0 mi East 4.6 mph - N/A   Overcast
6:55 AM 23.7 °F 16.6 °F 22.5 °F 95% 30.01 in 7.0 mi East 5.8 mph - N/A   Overcast
7:15 AM 23.9 °F 16.8 °F 22.8 °F 96% 30.00 in 7.0 mi East 5.8 mph - N/A   Overcast
7:35 AM 24.1 °F 19.7 °F 22.8 °F 95% 30.00 in 7.0 mi East 3.5 mph - N/A   Overcast
7:55 AM 24.4 °F 18.6 °F 23.0 °F 94% 30.00 in 5.0 mi East 4.6 mph - N/A   Overcast
8:15 AM 24.6 °F 18.8 °F 23.5 °F 96% 30.00 in 2.5 mi East 4.6 mph - N/A Snow Light Snow
8:35 AM 24.8 °F 20.5 °F 23.9 °F 96% 30.00 in 0.5 mi East 3.5 mph - N/A Snow Snow
8:55 AM 25.0 °F 20.7 °F 24.1 °F 96% 30.00 in 0.2 mi East 3.5 mph - N/A Snow Snow
9:15 AM 25.2 °F 18.3 °F 24.4 °F 97% 29.99 in 0.2 mi ENE 5.8 mph - N/A Snow Snow
9:35 AM 25.5 °F 18.7 °F 24.8 °F 97% 29.96 in 0.5 mi East 5.8 mph - N/A Snow Light Snow
9:55 AM 26.1 °F 20.5 °F 25.3 °F 97% 29.96 in 0.8 mi East 4.6 mph - N/A Snow Light Snow
10:15 AM 26.6 °F 22.6 °F 25.7 °F 96% 29.95 in 0.8 mi East 3.5 mph - N/A Snow Light Snow
10:35 AM 26.6 °F 22.6 °F 26.1 °F 98% 29.95 in 0.5 mi ENE 3.5 mph - N/A Snow Snow
10:54 AM 27.0 °F 21.6 °F 26.2 °F 97% 29.95 in 0.5 mi ENE 4.6 mph - N/A Snow Snow
11:15 AM 27.1 °F 21.8 °F 26.4 °F 97% 29.93 in 0.5 mi ENE 4.6 mph - N/A Snow Light Snow
11:35 AM 27.5 °F 21.1 °F 26.6 °F 96% 29.91 in 0.8 mi ENE 5.8 mph - N/A Snow Light Snow
11:54 AM 27.7 °F 20.4 °F 27.0 °F 97% 29.90 in 0.5 mi East 6.9 mph - N/A Snow Light Snow
12:15 PM 27.9 °F 19.8 °F 27.1 °F 97% 29.86 in 0.8 mi East 8.1 mph - N/A Snow Light Snow
12:35 PM 28.2 °F 20.2 °F 27.5 °F 97% 29.83 in 0.5 mi East 8.1 mph - N/A Snow Light Snow
12:54 PM 28.4 °F 24.6 °F 27.9 °F 98% 29.83 in 0.8 mi ENE 3.5 mph - N/A Snow Light Snow
1:15 PM 28.9 °F 23.9 °F 28.2 °F 97% 29.81 in 0.2 mi ESE 4.6 mph - N/A Snow Light Snow
1:35 PM 29.3 °F 25.6 °F 28.8 °F 98% 29.80 in 0.8 mi ENE 3.5 mph - N/A Snow Light Snow
1:54 PM 30.6 °F - 29.8 °F 97% 29.81 in 0.5 mi Calm Calm - N/A Snow Light Snow
2:15 PM 29.3 °F - 28.4 °F 96% 29.81 in 1.0 mi Calm Calm - N/A Snow Light Snow
2:35 PM 29.3 °F 25.6 °F 28.8 °F 98% 29.80 in 1.2 mi NNE 3.5 mph - N/A Snow Light Snow
2:55 PM 29.7 °F 26.1 °F 28.9 °F 97% 29.80 in 1.2 mi NNE 3.5 mph - N/A Snow Light Snow
3:15 PM 29.7 °F 24.7 °F 28.8 °F 96% 29.79 in 1.2 mi NE 4.6 mph - N/A Snow Light Snow
3:35 PM 29.5 °F - 28.9 °F 98% 29.79 in 1.2 mi Calm Calm - N/A Snow Light Snow
3:55 PM 29.7 °F - 28.9 °F 97% 29.80 in 2.0 mi Calm Calm - N/A Snow Light Snow
4:15 PM 29.5 °F 24.5 °F 28.6 °F 96% 29.80 in 1.2 mi North 4.6 mph - N/A Snow Light Snow
4:35 PM 28.4 °F 24.6 °F 27.5 °F 96% 29.80 in 1.0 mi North 3.5 mph - N/A Snow Light Snow
4:55 PM 28.2 °F 24.4 °F 27.3 °F 96% 29.79 in 1.5 mi North 3.5 mph - N/A Snow Light Snow
5:15 PM 27.7 °F 22.4 °F 26.8 °F 96% 29.79 in 1.5 mi North 4.6 mph - N/A Snow Light Snow
5:35 PM 27.9 °F 24.0 °F 27.0 °F 96% 29.80 in 2.0 mi North 3.5 mph - N/A Snow Light Snow
5:55 PM 28.0 °F - 27.1 °F 96% 29.81 in 1.5 mi Calm Calm - N/A Snow Light Snow
6:15 PM 28.0 °F 24.2 °F 27.1 °F 96% 29.81 in 1.8 mi NNW 3.5 mph - N/A Snow Light Snow
6:35 PM 27.1 °F 20.7 °F 26.1 °F 96% 29.83 in 2.0 mi NW 5.8 mph - N/A Snow Light Snow
6:55 PM 26.1 °F 18.4 °F 24.8 °F 95% 29.84 in 1.5 mi NNW 6.9 mph - N/A Snow Light Snow
7:15 PM 25.3 °F 16.7 °F 23.9 °F 94% 29.85 in 1.5 mi NNW 8.1 mph - N/A Snow Light Snow
7:34 PM 24.6 °F 14.4 °F 23.2 °F 94% 29.85 in 1.8 mi NNW 10.4 mph - N/A Snow Light Snow
7:55 PM 24.4 °F 17.5 °F 23.2 °F 95% 29.86 in 1.8 mi NNW 5.8 mph - N/A Snow Light Snow
10:43 PM 22.8 °F 15.5 °F 21.2 °F 93% 29.93 in 10.0 mi NW 5.8 mph - N/A   Mostly Cloudy
10:48 PM 22.8 °F 14.5 °F 21.2 °F 93% 29.93 in 10.0 mi NNW 6.9 mph - N/A   Mostly Cloudy
11:14 PM 22.3 °F 14.9 °F 20.5 °F 93% 29.94 in 10.0 mi NNW 5.8 mph - N/A   Mostly Cloudy
11:35 PM 21.9 °F 14.5 °F 20.3 °F 93% 29.95 in 10.0 mi NW 5.8 mph - N/A   Scattered Clouds
11:55 PM 21.7 °F 15.5 °F 20.3 °F 94% 29.95 in 10.0 mi NNW 4.6 mph - N/A   Scattered Clouds